Regional Weather Roundup
Issued by NWS

Home | Current Version | Previous Version | Text Only | Print | Product List | Glossary Off
Versions: 1 2 3 4 5 6 7 8 9 10 11 12 13 14 15 16 17 18 19 20 21 22 23 24 25 26 27 28 29 30 31 32 33 34 35 36 37 38 39 40 41 42 43 44 45 46 47 48

000
ASUS45 KSLC 201410
RWRUT

UTAH REGIONAL WEATHER ROUNDUP
NATIONAL WEATHER SERVICE SALT LAKE CITY UT
800 AM MDT SAT SEP 20 2014

UTZ001>011-023>025-201500-

NORTHERN UTAH

CITY           SKY/WX    TMP DP  RH WIND       PRES   REMARKS
HILL AFB       CLEAR     58  43  58 E16G24    30.19R
LOGAN          CLEAR     50  48  93 CALM      30.22R
OGDEN          CLEAR     58  44  60 S6        30.17R
PROVO AIRPORT  CLEAR     55  48  76 CALM      30.20R
SALT LAKE CITY PTCLDY    58  51  78 SE6       30.16R
VERNAL         CLEAR     56  44  64 CALM      30.23R
WENDOVER       PTCLDY    61  45  55 CALM      30.17R
HEBER CITY     CLEAR     45  43  93 CALM      30.28R
WEST JORDAN    CLEAR     57  46  67 SW3       30.19R

$$

UTZ012>022-026-027-201500-

SOUTHERN UTAH

CITY           SKY/WX    TMP DP  RH WIND       PRES   REMARKS
BRYCE CANYON   CLEAR     46  42  86 W8        30.34R
CEDAR CITY     CLEAR     54  46  74 CALM      30.19R
MILFORD        CLEAR     58  43  57 N8        30.16R
MOAB/CYNLANDS  CLEAR     61  43  51 SW3       30.09R
PRICE          CLEAR     66  41  40 CALM      30.21R
ST GEORGE      SUNNY     68  43  40 SE3       30.01R
KANAB            N/A     59  46  63 NE5       30.17R

$$

REGIONAL REPORTS     COLORADO/ARIZONA

CITY           SKY/WX    TMP DP  RH WIND       PRES   REMARKS
CRAIG, CO      SUNNY     43  40  89 CALM      30.33R
GRAND JUNCTION SUNNY     62  44  51 SE7       30.16R
RIFLE          SUNNY     53  44  71 E3        30.25R
MONTROSE       SUNNY     56  45  66 S5        30.24R
CORTEZ         SUNNY     50  45  83 CALM      30.19R
PAGE, AZ       CLEAR     74  48  39 CALM      30.08R
GRAND CANYON   MOCLDY    53  51  93 CALM      30.23R
KINGMAN        PTCLDY    63  50  62 CALM      30.02R
FLAGSTAFF      CLEAR     50  46  86 CALM      30.26R

$$

REGIONAL REPORTS    NEVADA/IDAHO/WYOMING

CITY           SKY/WX    TMP DP  RH WIND       PRES   REMARKS
LAS VEGAS, NV  MOCLDY    78  42  27 SW6       29.90R
ELY            CLEAR     42  34  73 S6        30.27R
ELKO           CLEAR     49  40  71 CALM      30.20R
POCATELLO, ID  CLEAR     45  43  93 NW3       30.23R
BURLEY         CLEAR     46  41  82 CALM      30.20R
EVANSTON, WY   CLEAR     46  37  71 SE6       30.35R
ROCK SPRINGS   PTSUNNY   50  35  56 CALM      30.34

$$


USA.gov is the U.S. government's official web portal to all federal, state and local government web resources and services.